Rbgn^[z[y[W
メイン
   新天体発見情報
     Comet P/2024 L4 = P/2014 N4 = P/2017 B6 (Rankin)
投稿するにはまず登録を

スレッド表示 | 新しいものから 前のトピック | 次のトピック | 下へ
投稿者 スレッド
佐藤裕久
投稿日時: 2025-3-18 15:34
モデレータ
登録日: 2005-6-12
居住地: 日本
投稿: 2608
オンライン
Comet P/2024 L4 = P/2014 N4 = P/2017 B6 (Rankin)

S. Deen (Simi Valley, カリフォルニア州, 米国)の報告によると、2004年、2014年、2016-2017年
にこの彗星(CBET 5409を参照)が出現した際、Maunaeaの3.6-m Canada-France-Hawaii 望遠鏡 
(2004年と2014年)、HaleakalaのPan-STARRS1 1.8-m 反射望遠鏡 (2014年)、WISE/NEOWISE
(地球周回衛星広視野赤外線探査機:2014年)、Maunaeaの8.3-mすばる望遠鏡 (2017年)で得られた
公開観測から発見前観測を見つけた。いずれの画像でも、その姿は明らかに小惑星のようである。
Deenはまた、2024年3月22.1日UT、Mt Lemmon 1.5-m 反射望遠鏡で得た21.0等の彗星の観測を同定
した。 彼は、2024年7月上旬、Q.-z. Yeが4.3-m Lowell Discovery望遠鏡で得た観測(どうやら未
発表)を付け加えた。Yeによる観測では、何の活動も見られなかった。
Deenは、P/2024 L4が既知の彗星 (2P/Enckeを含む)の中で最も半長軸と遠日点距離が小さいことを
指摘している。
佐藤英貴氏(東京都文京区)は、2024年7月29.2日UT、チリ Rio Hurtadoにある0.51-m f/6.8 アスト
ログラフの遠隔操作で得たCCD画像では、恒星状にしか見えなかった。 2".2の円形範囲で測定した
光度は21.0等であった。

Deenが測定したCFHTの観測は次のとおり、

     2004 UT             R.A. (2000) Decl.       Mag.
     Aug. 19.34855   21 10 56.62   -16 19 10.1   23.0
          19.37564   21 10 54.24   -16 19 29.7   23.2
          19.40661   21 10 51.49   -16 19 52.1   23.0

     2014 UT             R.A. (2000) Decl.       Mag.
     July 18.44494   21 56 07.51   - 7 25 14.6   22.0

Deenが測定したPan-STARRS1の観測はは次のとおり、

     2014 UT             R.A. (2000) Decl.
     Jan. 20.32276    3 19 23.62   + 2 07 51.1
          20.33463    3 19 22.55   + 2 07 58.0

小惑星センターの"isolated tracklet file"にあるPan-STARRS1の観測は次のとおり、

     2014 UT             R.A. (2000) Decl.       Mag.   Temp Desig
     July  4.57672   22 21 17.22   - 2 49 10.1   21.6   P10cBSf
           4.59156   22 21 15.74   - 2 49 26.7   21.5   "
           4.59898   22 21 15.01   - 2 49 34.8   21.5   "

Deenが測定したNEOWISEの観測は次のとおり、

     2014 UT             R.A. (2000) Decl.
     Jan. 31.64423    3 06 20.63   + 4 18 35.8

Deenが測定したすばるの観測は次のとおり、

     2016 UT             R.A. (2000) Decl.
     Dec. 23.29537    2 09 13.11   - 0 55 49.2

     2017 UT             R.A. (2000) Decl.
     Jan. 21.22568    2 06 45.98   + 1 10 43.6
          21.29398    2 06 47.13   + 1 11 09.0
          21.30752    2 06 47.39   + 1 11 14.3
          23.26041    2 07 26.63   + 1 23 43.1
          23.27766    2 07 26.96   + 1 23 50.0
          23.29491    2 07 27.34   + 1 23 56.7
          26.23060    2 08 37.17   + 1 43 26.4
          26.26757    2 08 38.07   + 1 43 41.7
          26.30024    2 08 38.88   + 1 43 54.9

MPCの連結軌道要素は次のとおり、

Orbital elements:
    P/2024 L4 (Rankin)                                                          
Epoch 2025 May 5.0 TT = JDT 2460800.5                                           
T 2024 Apr. 14.30236 TT                                 Veres                   
q   0.6719172            (2000.0)            P               Q                  
n   0.29633299     Peri.   53.69596     -0.96449093     +0.23888611             
a   2.2281754      Node   139.77917     -0.26106128     -0.92695085             
e   0.6984451      Incl.   10.04705     +0.04005326     -0.28930183             
P   3.33                                                                        
From 99 observations 2004 Aug. 19-2024 July 29, mean residual 0".4. 

中野氏(中央局)の連結軌道要素次のとおり、
from 98 observations spanning 2004 Aug. 19, 2014 Jan. 20-July 18, 2016 Dec.
23-2017 Jan. 26, and 2024 Mar. 22-July 29 (mean residual 0".3). 
2024年の観測結果のみを用いた最近の未発表の軌道と比較すると、2004年は0.66°、
2014年は0.28°、2017年は0.05°ずれている。 
彗星は1997年7月4日と2020年12月10日UTにそれぞれ金星から0.011 AUと0.079 AUを
通過した。

                    Epoch = 2000 Dec.  2.0 TT
     T = 2000 Nov. 26.28865 TT        Peri. =  52.58018
     e = 0.6943818                    Node  = 140.79244 2000.0
     q = 0.6828069 AU                 Incl. =  10.14054
       a =  2.2341828 AU   n = 0.29513860   P =   3.34 years

                    Epoch = 2004 Mar. 16.0 TT
     T = 2004 Mar. 29.50115 TT        Peri. =  52.54933
     e = 0.6949302                    Node  = 140.80218 2000.0
     q = 0.6814459 AU                 Incl. =  10.14371
       a =  2.2337381 AU   n = 0.29522675   P =   3.34 years

                    Epoch = 2007 Aug.  8.0 TT
     T = 2007 Aug.  1.29034 TT        Peri. =  52.61855
     e = 0.6946901                    Node  = 140.75940 2000.0
     q = 0.6819417 AU                 Incl. =  10.13921
       a =  2.2336052 AU   n = 0.29525309   P =   3.34 years

                    Epoch = 2010 Nov. 20.0 TT
     T = 2010 Dec.  1.68811 TT        Peri. =  52.57681
     e = 0.6950357                    Node  = 140.75869 2000.0
     q = 0.6810438 AU                 Incl. =  10.14109
       a =  2.2331920 AU   n = 0.29533503   P =   3.34 years

                    Epoch = 2014 Apr. 13.0 TT
     T = 2014 Apr.  4.02342 TT        Peri. =  52.64506
     e = 0.6939088                    Node  = 140.65818 2000.0
     q = 0.6842515 AU                 Incl. =  10.12753
       a =  2.2354498 AU   n = 0.29488772   P =   3.34 years

                    Epoch = 2017 July 26.0 TT
     T = 2017 Aug.  6.88773 TT        Peri. =  52.68695
     e = 0.6942423                    Node  = 140.63774 2000.0
     q = 0.6832753 AU                 Incl. =  10.12736
       a =  2.2346955 AU   n = 0.29503703   P =   3.34 years

                    Epoch = 2020 Dec. 17.0 TT
     T = 2020 Dec.  9.40592 TT        Peri. =  52.72595
     e = 0.6938478                    Node  = 140.58702 2000.0
     q = 0.6847970 AU                 Incl. =  10.12089
       a =  2.2367862 AU   n = 0.29462348   P =   3.34 years

                    Epoch = 2024 Mar. 31.0 TT
     T = 2024 Apr. 14.29453 TT        Peri. =  53.71457
     e = 0.6983898                    Node  = 139.78002 2000.0
     q = 0.6722263 AU                 Incl. =  10.04547
       a =  2.2287917 AU   n = 0.29621010   P =   3.33 years

                    Epoch = 2027 Aug. 23.0 TT
     T = 2027 Aug. 11.86739 TT        Peri. =  53.68696
     e = 0.6988550                    Node  = 139.78533 2000.0
     q = 0.6708948 AU                 Incl. =  10.04802
       a =  2.2278132 AU   n = 0.29640526   P =   3.32 years

                    Epoch = 2030 Dec.  5.0 TT
     T = 2030 Dec.  9.06322 TT        Peri. =  53.77209
     e = 0.6986553                    Node  = 139.73365 2000.0
     q = 0.6713718 AU                 Incl. =  10.04296
       a =  2.2279199 AU   n = 0.29638397   P =   3.32 years

                    Epoch = 2034 Mar. 19.0 TT
     T = 2034 Apr.  6.11073 TT        Peri. =  53.73218
     e = 0.6985880                    Node  = 139.72826 2000.0
     q = 0.6716583 AU                 Incl. =  10.04308
       a =  2.2283731 AU   n = 0.29629356   P =   3.33 years

                    Epoch = 2037 Aug. 10.0 TT
     T = 2037 Aug.  4.73933 TT        Peri. =  53.99054
     e = 0.6964231                    Node  = 139.47087 2000.0
     q = 0.6776344 AU                 Incl. =  10.01064
       a =  2.2321673 AU   n = 0.29553844   P =   3.34 years

                    Epoch = 2040 Nov. 22.0 TT
     T = 2040 Dec.  5.01502 TT        Peri. =  54.02147
     e = 0.6969406                    Node  = 139.45889 2000.0
     q = 0.6763166 AU                 Incl. =  10.01137
       a =  2.2316303 AU   n = 0.29564511   P =   3.33 years

                    Epoch = 2044 Apr. 15.0 TT
     T = 2044 Apr.  6.30015 TT        Peri. =  54.07829
     e = 0.6964164                    Node  = 139.41312 2000.0
     q = 0.6777440 AU                 Incl. =  10.00608
       a =  2.2324788 AU   n = 0.29547658   P =   3.34 years

(MPEC 2025-D238、CBET 5523)


Comet P/2024 L4 (Rankin)

David Rankin (アリゾナ大学月惑星研究所, LPL)に通報によると、6月15日、Mt Lemmon サーベイ
の1.5-m 反射望遠鏡で得た画像から彗星を発見した。
G. J. Leonardの報告によると、6月16.5日UT、Mt LemmonのSteward天文台の1-m 反射望遠鏡で得た
CCD画像では、12枚の42-秒露出で約8"の集光したコマがあり見えたが、尾はなかった。
P. Jenniskensは、可能性のある関連流星群は、こいぬ座δ1であると書いている(Jenniskens 2024, 
*Atlas of Earth's Meteor Showers*, p. 663参照)。 S. Deenはこの彗星の軌道が異常に小さいこと
を指摘し、2024年5月3日から9日にかけて1.2-m Schmidt Palomar望遠鏡("Zwicky Transient Facility")
の彗星視野の画像を調べたが、V=21.0等以下は何も見つからなかったと述べている。

彗星機能の報告は次のとおり、

OC   Date        Reporter           Coma    Tail    PA          Exposures
I52  2024-06-16  G. J. Leonard      8"                            12x42s
W62  2024-07-08  J. Maikner         4"        7"     70           70x40s

発見位置は次のとおり、

     2024 UT             R.A. (2000) Decl.       Mag.   Observer
     June 15.42612   22 43 42.20   + 6 31 23.5   20.9   Rankin
          15.43133   22 43 41.69   + 6 31 16.6   20.8     "
          15.43656   22 43 41.13   + 6 31 09.9            "
          15.44754   22 43 40.14   + 6 30 54.7   20.9     "
          15.44955   22 43 39.93   + 6 30 51.7   21.1     "
          15.45080   22 43 39.83   + 6 30 50.5   20.7     "

MPCの楕円軌道要素、位置推算表は次のとおり、

Orbital elements:
    P/2024 L4 (Rankin)                                                          
Epoch 2024 Mar. 31.0 TT = JDT 2460400.5                                         
T 2024 Apr. 14.29200 TT                                 Rudenko                 
q   0.6719660            (2000.0)            P               Q                  
n   0.29582508     Peri.   53.70906     -0.96443613     +0.23905070             
a   2.2307251      Node   139.77515     -0.26124909     -0.92693421             
e   0.6987679      Incl.   10.05701     +0.04014805     -0.28921918             
P   3.33                                                                        
From 67 observations 2024 June 15-July 8, mean residual 0".3.                   
                                                                                
Ephemeris:
Date    TT    R. A. (2000) Decl.     Delta      r    Elong.  Phase   m1
2024 06 09    22 52 50.8 +08 54 01   0.4695  1.1205    90.3    65.0  20.4
...
2024 06 24    22 29 23.9 +03 10 46   0.4990  1.2886   111.9    47.0  21.1
...
2024 07 02    22 13 31.7 -00 11 23   0.5169  1.3766   124.4    37.5  21.5
...
2024 07 08    22 00 10.5 -02 50 45   0.5348  1.4416   134.2    30.4  21.7
2024 07 09    21 57 51.4 -03 17 39   0.5384  1.4523   135.9    29.2  21.8
2024 07 10    21 55 31.2 -03 44 34   0.5420  1.4630   137.5    28.0  21.8
...
2024 07 16    21 41 14.4 -06 25 10   0.5682  1.5265   147.5    20.9  22.1
...
2024 07 24    21 22 19.9 -09 48 31   0.6153  1.6094   160.7    12.1  22.5
...
2024 08 08    20 51 42.0 -15 00 02   0.7468  1.7591   174.9     2.9  23.3

(MPEC 2024-N106、CBET 5409)

  この彗星の周期は2P/Enckeに次いで3番目に短い。

 P	Name
3.237  	311P/PANSTARRS
3.304  	2P/Encke
3.331  	P/2024 L4 (Rankin)   <=====
3.465  	354P/LINEAR

スレッド表示 | 新しいものから 前のトピック | 次のトピック | トップ

投稿するにはまず登録を
 
© 1999 Tsutomu Seki.